DW9584 Weather Reports


time (UTC)temp
C
wind
direction
speed
KPH
gust
KPH
rain 1hr
cm
rain 24hr
cm
rain mn
cm
humidity
%
barometer
mb
20260503211518 15 311 1.6 14.5 0.00 0.00 0.00 32 1012.5
20260503210014 15 290 1.6 12.9 0.00 0.00 0.00 32 1012.6
20260503204515 15 284 1.6 17.7 0.00 0.00 0.00 35 1012.6
20260503203016 15 278 3.2 11.3 0.00 0.00 0.00 34 1012.5
20260503201527 15 302 3.2 11.3 0.00 0.00 0.00 33 1012.9
20260503200027 14 14 3.2 14.5 0.00 0.00 0.00 36 1012.6
20260503194523 14 189 3.2 14.5 0.00 0.00 0.00 35 1012.9
20260503193016 14 1 4.8 16.1 0.00 0.00 0.00 33 1013.1
20260503191520 14 248 8.0 19.3 0.00 0.00 0.00 32 1013.3
20260503190022 14 347 1.6 16.1 0.00 0.00 0.00 35 1013.2
20260503184526 14 297 3.2 12.9 0.00 0.00 0.00 35 1013.4
20260503183027 14 307 4.8 16.1 0.00 0.00 0.00 34 1013.6
20260503181523 13 75 1.6 16.1 0.00 0.00 0.00 34 1013.7
20260503180004 13 201 4.8 16.1 0.00 0.00 0.00 34 1013.7
20260503174504 12 268 6.4 16.1 0.00 0.00 0.00 35 1013.9
20260503173040 12 205 6.4 16.1 0.00 0.00 0.00 36 1013.9
20260503171520 13 338 1.6 9.7 0.00 0.00 0.00 39 1014.1
20260503081518 5 288 0.0 1.6 0.00 0.00 0.00 77 1011.8
20260503071509 6 316 0.0 0.0 0.00 0.00 0.00 71 1011.4
20260503054521 8 317 0.0 9.7 0.00 0.00 0.00 61 1011.5
20260503053009 8 210 0.0 3.2 0.00 0.00 0.00 60 1011.5
20260503051526 8 357 0.0 4.8 0.00 0.00 0.00 60 1011.6
20260503050024 9 293 1.6 9.7 0.00 0.00 0.00 58 1011.6
20260503044559 9 285 0.0 6.4 0.00 0.00 0.00 57 1011.8
20260503043025 9 324 1.6 8.0 0.00 0.00 0.00 56 1011.9
20260503041522 9 318 1.6 16.1 0.00 0.00 0.00 56 1012.0
20260503040018 9 327 1.6 11.3 0.00 0.00 0.00 54 1012.1
20260503034518 9 266 1.6 6.4 0.00 0.00 0.00 54 1012.2
20260503033029 10 179 0.0 12.9 0.00 0.00 0.00 53 1012.2
20260503031527 10 193 1.6 9.7 0.00 0.00 0.00 52 1012.2
20260503030029 10 308 1.6 11.3 0.00 0.00 0.00 51 1012.1
20260503024526 10 278 0.0 4.8 0.00 0.00 0.00 53 1012.2
20260503023026 10 295 0.0 4.8 0.00 0.00 0.00 51 1012.2
20260503021524 10 300 0.0 3.2 0.00 0.00 0.00 50 1012.3
20260503020032 10 305 0.0 6.4 0.00 0.00 0.00 48 1012.2
20260503014518 11 296 1.6 4.8 0.00 0.00 0.00 47 1012.2
20260503013028 11 304 0.0 4.8 0.00 0.00 0.00 46 1012.0
20260503011528 11 318 1.6 8.0 0.00 0.00 0.00 45 1012.0
20260503010030 11 278 0.0 8.0 0.00 0.00 0.00 47 1011.7
20260503004526 11 292 0.0 3.2 0.00 0.00 0.00 45 1011.8
20260503003032 12 303 0.0 8.0 0.00 0.00 0.00 43 1011.6
20260503001526 12 303 1.6 8.0 0.00 0.00 0.00 43 1011.6
20260503000029 12 295 1.6 8.0 0.00 0.00 0.00 45 1011.5
20260502234542 12 311 0.0 6.4 0.00 0.00 0.00 42 1011.2
20260502233015 12 322 3.2 6.4 0.00 0.00 0.00 40 1011.2
20260502231515 12 309 0.0 6.4 0.00 0.00 0.00 40 1011.1
20260502230014 13 290 0.0 11.3 0.00 0.00 0.00 39 1011.3
20260502224509 13 303 3.2 16.1 0.00 0.00 0.00 38 1011.3
20260502223037 13 210 0.0 4.8 0.00 0.00 0.00 39 1011.2
20260502221526 14 312 1.6 9.7 0.00 0.00 0.00 38 1011.1
20260502220026 14 243 0.0 6.4 0.00 0.00 0.00 39 1011.1
20260502214524 13 267 3.2 8.0 0.00 0.00 0.00 38 1011.1
20260502213019 15 269 1.6 12.9 0.00 0.00 0.00 39 1011.0